STARLINK-11318, 61252

Orbit data source: Space-Track

STARLINK-11318, 61252 is a payload satellite owned by SpaceX/Seattle (US) in LEO that was launched on Wed, 25 Sep 2024 UTC via an FALCON 9 launch vehicle from the Air Force Western Test Range (AFWTR). Payload-class satellites include a variety of spacecraft equipped with specific instruments for various scientific and technological missions. These include communications satellites like Starlink; space stations such as the ISS; scientific satellites like the Hubble; Earth observation satellites from companies like Planet Labs, Umbra, and HawkEye 360; GPS; miniature CubeSats for education and research; and military/defense satellites.

Loading next visibility...
Identifier
61252, 2024-175K
Orbit
LEO
Country
Flag of USUS
Related business
Manufacturer
SpaceX/Seattle
Mission
Operational Commercial Communications
Bus & Motor
STARLINK V2MD, Unknown motor
Mass
960 kg wet, ~910 kg dry
Launch date (UTC)
2024-09-25 (1 year ago)
Launch vehicle
FALCON 9
Launch site
Air Force Western Test Range (AFWTR)
Object type
Payload
Rocket body
Debris
Shape & HBR
Box + 2 Pan, 18.1 m
Radar Cross Section
36.964 m², Large (>1 m²)

Expand to show TLE details & history
Last TLE update: 6 hours ago

TLE from 6 hours ago
0 STARLINK-11318
1 61252U 24175K   26034.24823166 -.00002723  00000-0 -17630-4 0  9999
2 61252  53.1590 226.2957 0000775 124.9952 235.1138 15.69708946 79122
Epoch: 2026-02-03T05:57Z
TLE epoch observation values (Epoch: 2026-02-03T05:57:27.215Z)
Latitude
-0.00008°
Longitude
3.50035°
Altitude
360.943 km
Speed
7.694 km/s
True Right ascension
15h 05m 10s
True Declination
0° 00' 00"
Sunlit
Object was in daylight at epoch
Visualization orbit readout
Latitude
Unknown
Longitude
Unknown
Altitude
Unknown
Speed
Unknown
Apparent Right ascension
Unknown
Apparent Declination
Unknown
Sunlit
N/A
Visualization observer readout
Local Sidereal Time
13:52:46
Azimuth
Unknown
Elevation
Unknown
Doppler factor
Unknown
Orbital elements
Apogee altitude
360.513 km
Perigee altitude
359.468 km
Semi-major axis
6,738.128 km
Eccentricity
0.00008
Inclination
53.159°
RAAN
226.2957°
Arg. of periapsis
124.9952°
True anomaly
235.10652°
Mean anomaly
235.1138°
Eccentric anomaly
235.11016°
Mean motion
3.92405 °/min
Orbital period
91.74 mins
BSTAR
-0.00001763
Loading maneuver chart data...
Computing Atmospheric mass density...
Loading historical data...
Loading historical data...
Loading historical data...
Loading historical data...
Loading historical data...
Loading historical data...
Loading historical data...

Documentation

Showing up to 5 results
|